Time,TemperatureF,DewpointF,PressureIn,WindDirection,WindDirectionDegrees,WindSpeedMPH,WindSpeedGustMPH,Humidity,HourlyPrecipIn,Conditions,Clouds,dailyrainin,SoftwareType,DateUTC
2013-01-07 00:03:00,28.0,21.0,30.35,WNW,290,5.0,-999.0,74,-99.99,,,-99.99,,2013-01-07 05:03:00,
2013-01-07 00:12:00,28.0,21.0,30.36,WNW,290,6.0,-999.0,74,-99.99,,,-99.99,,2013-01-07 05:12:00,
2013-01-07 00:22:00,28.0,21.0,30.35,North,0,0.0,-999.0,74,-99.99,,,-99.99,,2013-01-07 05:22:00,
2013-01-07 00:33:00,28.0,21.0,30.36,WNW,290,3.0,-999.0,74,-99.99,,,-99.99,,2013-01-07 05:33:00,
2013-01-07 00:42:00,28.0,21.0,30.35,North,0,0.0,-999.0,74,-99.99,,,-99.99,,2013-01-07 05:42:00,
2013-01-07 00:52:00,28.0,21.0,30.35,WNW,300,3.0,-999.0,74,-99.99,,,-99.99,,2013-01-07 05:52:00,
2013-01-07 01:02:00,28.0,21.0,30.35,WNW,300,3.0,-999.0,74,-99.99,,,-99.99,,2013-01-07 06:02:00,
2013-01-07 01:12:00,28.0,21.0,30.36,North,0,0.0,-999.0,74,-99.99,,,-99.99,,2013-01-07 06:12:00,
2013-01-07 01:22:00,28.0,21.0,30.36,North,0,0.0,-999.0,74,-99.99,,,-99.99,,2013-01-07 06:22:00,
2013-01-07 01:32:00,28.0,21.0,30.36,North,0,0.0,-999.0,74,-99.99,,,-99.99,,2013-01-07 06:32:00,
2013-01-07 01:42:00,28.0,21.0,30.36,North,0,0.0,-999.0,74,-99.99,,,-99.99,,2013-01-07 06:42:00,
2013-01-07 01:52:00,28.0,21.0,30.36,North,0,0.0,-999.0,74,-99.99,,,-99.99,,2013-01-07 06:52:00,
2013-01-07 02:02:00,28.0,21.0,30.36,North,0,0.0,-999.0,74,-99.99,,,-99.99,,2013-01-07 07:02:00,
2013-01-07 02:12:00,28.0,21.0,30.36,North,0,0.0,-999.0,74,-99.99,,,-99.99,,2013-01-07 07:12:00,
2013-01-07 02:22:00,28.0,21.0,30.36,North,0,0.0,-999.0,74,-99.99,,,-99.99,,2013-01-07 07:22:00,
2013-01-07 02:33:00,27.0,21.0,30.36,North,0,0.0,-999.0,79,-99.99,,,-99.99,,2013-01-07 07:33:00,
2013-01-07 02:42:00,27.0,21.0,30.36,North,0,0.0,-999.0,79,-99.99,,,-99.99,,2013-01-07 07:42:00,
2013-01-07 02:52:00,27.0,21.0,30.36,North,0,0.0,-999.0,79,-99.99,,,-99.99,,2013-01-07 07:52:00,
2013-01-07 03:03:00,27.0,21.0,30.36,North,0,0.0,-999.0,79,-99.99,,,-99.99,,2013-01-07 08:03:00,
2013-01-07 03:12:00,27.0,21.0,30.37,North,0,0.0,-999.0,79,-99.99,,,-99.99,,2013-01-07 08:12:00,
2013-01-07 03:22:00,27.0,21.0,30.37,North,0,0.0,-999.0,79,-99.99,,,-99.99,,2013-01-07 08:22:00,
2013-01-07 03:32:00,27.0,21.0,30.38,North,0,0.0,-999.0,79,-99.99,,,-99.99,,2013-01-07 08:32:00,
2013-01-07 03:42:00,27.0,21.0,30.38,North,0,0.0,-999.0,79,-99.99,,,-99.99,,2013-01-07 08:42:00,
2013-01-07 03:52:00,25.0,21.0,30.38,North,0,0.0,-999.0,85,-99.99,,,-99.99,,2013-01-07 08:52:00,
2013-01-07 04:02:00,25.0,21.0,30.38,North,0,0.0,-999.0,85,-99.99,,,-99.99,,2013-01-07 09:02:00,
2013-01-07 04:12:00,27.0,21.0,30.37,North,0,0.0,-999.0,79,-99.99,,,-99.99,,2013-01-07 09:12:00,
2013-01-07 04:22:00,27.0,21.0,30.37,WSW,240,3.0,-999.0,79,-99.99,,,-99.99,,2013-01-07 09:22:00,
2013-01-07 04:32:00,25.0,21.0,30.38,North,0,0.0,-999.0,85,-99.99,,,-99.99,,2013-01-07 09:32:00,
2013-01-07 04:42:00,25.0,21.0,30.38,North,0,0.0,-999.0,85,-99.99,,,-99.99,,2013-01-07 09:42:00,
2013-01-07 04:52:00,25.0,21.0,30.39,West,280,3.0,-999.0,85,-99.99,,,-99.99,,2013-01-07 09:52:00,
2013-01-07 05:02:00,25.0,21.0,30.39,West,280,3.0,-999.0,85,-99.99,,,-99.99,,2013-01-07 10:02:00,
2013-01-07 05:12:00,23.0,19.0,30.39,West,280,3.0,-999.0,85,-99.99,,,-99.99,,2013-01-07 10:12:00,
2013-01-07 05:22:00,25.0,21.0,30.39,North,0,0.0,-999.0,85,-99.99,,,-99.99,,2013-01-07 10:22:00,
2013-01-07 05:32:00,25.0,21.0,30.40,North,0,0.0,-999.0,85,-99.99,,,-99.99,,2013-01-07 10:32:00,
2013-01-07 05:42:00,25.0,21.0,30.40,West,260,3.0,-999.0,85,-99.99,,,-99.99,,2013-01-07 10:42:00,
2013-01-07 05:52:00,25.0,21.0,30.40,WSW,240,3.0,-999.0,85,-99.99,,,-99.99,,2013-01-07 10:52:00,
2013-01-07 06:02:00,25.0,21.0,30.40,WSW,240,3.0,-999.0,85,-99.99,,,-99.99,,2013-01-07 11:02:00,
2013-01-07 06:12:00,25.0,21.0,30.40,WSW,250,3.0,-999.0,85,-99.99,,,-99.99,,2013-01-07 11:12:00,
2013-01-07 06:23:00,25.0,21.0,30.40,WSW,250,3.0,-999.0,85,-99.99,,,-99.99,,2013-01-07 11:23:00,
2013-01-07 06:33:00,25.0,21.0,30.41,North,0,0.0,-999.0,85,-99.99,,,-99.99,,2013-01-07 11:33:00,
2013-01-07 06:43:00,25.0,21.0,30.42,SW,230,3.0,-999.0,85,-99.99,,,-99.99,,2013-01-07 11:43:00,
2013-01-07 06:53:00,25.0,21.0,30.42,North,0,0.0,-999.0,85,-99.99,,,-99.99,,2013-01-07 11:53:00,
2013-01-07 07:03:00,25.0,21.0,30.42,North,0,0.0,-999.0,85,-99.99,,,-99.99,,2013-01-07 12:03:00,
2013-01-07 07:12:00,23.0,21.0,30.43,SW,230,3.0,-999.0,92,-99.99,,,-99.99,,2013-01-07 12:12:00,
2013-01-07 07:22:00,25.0,21.0,30.44,SW,230,5.0,-999.0,85,-99.99,,,-99.99,,2013-01-07 12:22:00,
2013-01-07 07:33:00,25.0,21.0,30.44,North,0,0.0,-999.0,85,-99.99,,,-99.99,,2013-01-07 12:33:00,
2013-01-07 07:43:00,23.0,21.0,30.45,North,0,0.0,-999.0,92,-99.99,,,-99.99,,2013-01-07 12:43:00,
2013-01-07 07:52:00,21.0,21.0,30.45,North,0,0.0,-999.0,100,-99.99,,,-99.99,,2013-01-07 12:52:00,
2013-01-07 08:03:00,21.0,21.0,30.45,North,0,0.0,-999.0,100,-99.99,,,-99.99,,2013-01-07 13:03:00,
2013-01-07 08:12:00,25.0,21.0,30.45,North,0,0.0,-999.0,85,-99.99,,,-99.99,,2013-01-07 13:12:00,
2013-01-07 08:23:00,25.0,21.0,30.45,North,0,0.0,-999.0,85,-99.99,,,-99.99,,2013-01-07 13:23:00,
2013-01-07 08:33:00,23.0,21.0,30.45,SW,220,3.0,-999.0,92,-99.99,,,-99.99,,2013-01-07 13:33:00,
2013-01-07 08:42:00,25.0,21.0,30.45,North,0,0.0,-999.0,85,-99.99,,,-99.99,,2013-01-07 13:42:00,
2013-01-07 08:52:00,25.0,21.0,30.45,North,0,0.0,-999.0,85,-99.99,,,-99.99,,2013-01-07 13:52:00,
2013-01-07 09:03:00,25.0,21.0,30.45,North,0,0.0,-999.0,85,-99.99,,,-99.99,,2013-01-07 14:03:00,
2013-01-07 09:12:00,25.0,21.0,30.45,North,0,0.0,-999.0,85,-99.99,,,-99.99,,2013-01-07 14:12:00,
2013-01-07 09:22:00,25.0,23.0,30.46,North,0,0.0,-999.0,92,-99.99,,,-99.99,,2013-01-07 14:22:00,
2013-01-07 09:33:00,27.0,23.0,30.46,North,0,0.0,-999.0,86,-99.99,,,-99.99,,2013-01-07 14:33:00,
2013-01-07 09:42:00,27.0,23.0,30.46,North,0,0.0,-999.0,86,-99.99,,,-99.99,,2013-01-07 14:42:00,
2013-01-07 09:53:00,27.0,23.0,30.46,North,0,0.0,-999.0,86,-99.99,,,-99.99,,2013-01-07 14:53:00,
2013-01-07 10:03:00,27.0,23.0,30.46,North,0,0.0,-999.0,86,-99.99,,,-99.99,,2013-01-07 15:03:00,
2013-01-07 10:12:00,27.0,23.0,30.46,North,0,0.0,-999.0,86,-99.99,,,-99.99,,2013-01-07 15:12:00,
2013-01-07 10:22:00,28.0,23.0,30.47,North,0,0.0,-999.0,79,-99.99,,,-99.99,,2013-01-07 15:22:00,
2013-01-07 10:33:00,28.0,23.0,30.47,North,0,0.0,-999.0,79,-99.99,,,-99.99,,2013-01-07 15:33:00,
2013-01-07 10:43:00,28.0,23.0,30.46,ESE,110,3.0,-999.0,79,-99.99,,,-99.99,,2013-01-07 15:43:00,
2013-01-07 10:53:00,30.0,23.0,30.46,North,0,0.0,-999.0,74,-99.99,,,-99.99,,2013-01-07 15:53:00,
2013-01-07 11:03:00,30.0,23.0,30.46,North,0,0.0,-999.0,74,-99.99,,,-99.99,,2013-01-07 16:03:00,
2013-01-07 11:12:00,30.0,25.0,30.45,ESE,120,5.0,-999.0,80,-99.99,,,-99.99,,2013-01-07 16:12:00,
2013-01-07 11:22:00,32.0,25.0,30.45,SSE,150,6.0,-999.0,74,-99.99,,,-99.99,,2013-01-07 16:22:00,
2013-01-07 11:33:00,32.0,25.0,30.44,ESE,110,3.0,-999.0,74,-99.99,,,-99.99,,2013-01-07 16:33:00,
2013-01-07 11:43:00,34.0,25.0,30.44,SE,130,5.0,-999.0,69,-99.99,,,-99.99,,2013-01-07 16:43:00,
2013-01-07 11:53:00,34.0,25.0,30.44,SE,130,5.0,-999.0,69,-99.99,,,-99.99,,2013-01-07 16:53:00,
2013-01-07 12:03:00,34.0,25.0,30.44,SE,130,5.0,-999.0,69,-99.99,,,-99.99,,2013-01-07 17:03:00,
2013-01-07 12:12:00,34.0,25.0,30.43,SE,140,9.0,-999.0,69,-99.99,,,-99.99,,2013-01-07 17:12:00,
2013-01-07 12:23:00,36.0,25.0,30.42,SSE,150,7.0,-999.0,64,-99.99,,,-99.99,,2013-01-07 17:23:00,
2013-01-07 12:33:00,36.0,25.0,30.41,SE,130,6.0,-999.0,64,-99.99,,,-99.99,,2013-01-07 17:33:00,
2013-01-07 12:42:00,36.0,25.0,30.41,SSE,150,5.0,-999.0,64,-99.99,,,-99.99,,2013-01-07 17:42:00,
2013-01-07 12:53:00,36.0,25.0,30.40,South,180,3.0,-999.0,64,-99.99,,,-99.99,,2013-01-07 17:53:00,
2013-01-07 13:03:00,36.0,25.0,30.40,South,180,3.0,-999.0,64,-99.99,,,-99.99,,2013-01-07 18:03:00,
2013-01-07 13:12:00,36.0,25.0,30.39,SSW,200,3.0,-999.0,64,-99.99,,,-99.99,,2013-01-07 18:12:00,
2013-01-07 13:23:00,37.0,25.0,30.39,SSW,200,3.0,-999.0,60,-99.99,,,-99.99,,2013-01-07 18:23:00,
2013-01-07 13:33:00,37.0,25.0,30.38,SE,140,5.0,-999.0,60,-99.99,,,-99.99,,2013-01-07 18:33:00,
2013-01-07 13:42:00,37.0,25.0,30.38,North,0,0.0,-999.0,60,-99.99,,,-99.99,,2013-01-07 18:42:00,
2013-01-07 13:52:00,37.0,25.0,30.37,SSW,200,5.0,-999.0,60,-99.99,,,-99.99,,2013-01-07 18:52:00,
2013-01-07 14:03:00,37.0,25.0,30.37,SSW,200,5.0,-999.0,60,-99.99,,,-99.99,,2013-01-07 19:03:00,
2013-01-07 14:12:00,37.0,25.0,30.37,South,190,5.0,-999.0,60,-99.99,,,-99.99,,2013-01-07 19:12:00,
2013-01-07 14:23:00,39.0,25.0,30.36,South,190,7.0,-999.0,55,-99.99,,,-99.99,,2013-01-07 19:23:00,
2013-01-07 14:33:00,39.0,25.0,30.36,SSW,200,3.0,-999.0,55,-99.99,,,-99.99,,2013-01-07 19:33:00,
2013-01-07 14:43:00,39.0,25.0,30.36,SW,220,5.0,-999.0,55,-99.99,,,-99.99,,2013-01-07 19:43:00,
2013-01-07 14:52:00,39.0,25.0,30.36,SSW,200,6.0,-999.0,55,-99.99,,,-99.99,,2013-01-07 19:52:00,
2013-01-07 15:03:00,39.0,25.0,30.36,SSW,200,6.0,-999.0,55,-99.99,,,-99.99,,2013-01-07 20:03:00,
2013-01-07 15:12:00,39.0,25.0,30.36,SW,230,5.0,-999.0,55,-99.99,,,-99.99,,2013-01-07 20:12:00,
2013-01-07 15:23:00,39.0,25.0,30.36,SSE,160,5.0,-999.0,55,-99.99,,,-99.99,,2013-01-07 20:23:00,
2013-01-07 15:33:00,39.0,25.0,30.36,WSW,240,3.0,-999.0,55,-99.99,,,-99.99,,2013-01-07 20:33:00,
2013-01-07 15:42:00,39.0,25.0,30.36,SSW,200,3.0,-999.0,55,-99.99,,,-99.99,,2013-01-07 20:42:00,
2013-01-07 15:52:00,39.0,25.0,30.35,North,0,0.0,-999.0,55,-99.99,,,-99.99,,2013-01-07 20:52:00,
2013-01-07 16:03:00,39.0,25.0,30.35,North,0,0.0,-999.0,55,-99.99,,,-99.99,,2013-01-07 21:03:00,
2013-01-07 16:12:00,39.0,25.0,30.34,North,0,0.0,-999.0,55,-99.99,,,-99.99,,2013-01-07 21:12:00,
2013-01-07 16:23:00,39.0,25.0,30.34,South,180,3.0,-999.0,55,-99.99,,,-99.99,,2013-01-07 21:23:00,
2013-01-07 16:33:00,39.0,25.0,30.34,South,180,3.0,-999.0,55,-99.99,,,-99.99,,2013-01-07 21:33:00,
2013-01-07 16:43:00,39.0,25.0,30.34,North,0,0.0,-999.0,55,-99.99,,,-99.99,,2013-01-07 21:43:00,
2013-01-07 16:52:00,37.0,25.0,30.34,South,180,5.0,-999.0,60,-99.99,,,-99.99,,2013-01-07 21:52:00,
2013-01-07 17:03:00,37.0,25.0,30.34,South,180,5.0,-999.0,60,-99.99,,,-99.99,,2013-01-07 22:03:00,
2013-01-07 17:12:00,37.0,25.0,30.34,SSW,210,3.0,-999.0,60,-99.99,,,-99.99,,2013-01-07 22:12:00,
2013-01-07 17:23:00,37.0,25.0,30.33,South,180,3.0,-999.0,60,-99.99,,,-99.99,,2013-01-07 22:23:00,
2013-01-07 17:33:00,37.0,25.0,30.33,South,190,5.0,-999.0,60,-99.99,,,-99.99,,2013-01-07 22:33:00,
2013-01-07 17:42:00,36.0,25.0,30.33,South,190,6.0,-999.0,64,-99.99,,,-99.99,,2013-01-07 22:42:00,
2013-01-07 17:53:00,36.0,25.0,30.32,South,190,5.0,-999.0,64,-99.99,,,-99.99,,2013-01-07 22:53:00,
2013-01-07 18:02:00,36.0,25.0,30.32,South,190,5.0,-999.0,64,-99.99,,,-99.99,,2013-01-07 23:02:00,
2013-01-07 18:12:00,36.0,25.0,30.32,South,190,6.0,-999.0,64,-99.99,,,-99.99,,2013-01-07 23:12:00,
2013-01-07 18:22:00,36.0,25.0,30.31,SSE,160,5.0,-999.0,64,-99.99,,,-99.99,,2013-01-07 23:22:00,
2013-01-07 18:33:00,36.0,25.0,30.31,South,170,6.0,-999.0,64,-99.99,,,-99.99,,2013-01-07 23:33:00,
2013-01-07 18:43:00,36.0,25.0,30.31,SSE,160,6.0,-999.0,64,-99.99,,,-99.99,,2013-01-07 23:43:00,
2013-01-07 18:53:00,34.0,25.0,30.31,South,180,7.0,-999.0,69,-99.99,,,-99.99,,2013-01-07 23:53:00,
2013-01-07 19:03:00,34.0,25.0,30.31,South,180,7.0,-999.0,69,-99.99,,,-99.99,,2013-01-08 00:03:00,
2013-01-07 19:12:00,34.0,25.0,30.30,South,170,6.0,-999.0,69,-99.99,,,-99.99,,2013-01-08 00:12:00,
2013-01-07 19:22:00,34.0,25.0,30.30,SSE,160,5.0,-999.0,69,-99.99,,,-99.99,,2013-01-08 00:22:00,
2013-01-07 19:33:00,34.0,25.0,30.30,SSE,160,5.0,-999.0,69,-99.99,,,-99.99,,2013-01-08 00:33:00,
2013-01-07 19:42:00,34.0,25.0,30.29,SSE,150,6.0,-999.0,69,-99.99,,,-99.99,,2013-01-08 00:42:00,
2013-01-07 19:52:00,34.0,25.0,30.29,SSE,160,6.0,-999.0,69,-99.99,,,-99.99,,2013-01-08 00:52:00,
2013-01-07 20:03:00,34.0,25.0,30.29,SSE,160,6.0,-999.0,69,-99.99,,,-99.99,,2013-01-08 01:03:00,
2013-01-07 20:12:00,34.0,25.0,30.28,SSE,150,9.0,-999.0,69,-99.99,,,-99.99,,2013-01-08 01:12:00,
2013-01-07 20:22:00,34.0,25.0,30.27,SSE,150,12.0,-999.0,69,-99.99,,,-99.99,,2013-01-08 01:22:00,
2013-01-07 20:33:00,34.0,25.0,30.26,SE,140,9.0,-999.0,69,-99.99,,,-99.99,,2013-01-08 01:33:00,
2013-01-07 20:42:00,32.0,25.0,30.27,SSE,150,8.0,-999.0,74,-99.99,,,-99.99,,2013-01-08 01:42:00,
2013-01-07 20:52:00,32.0,25.0,30.27,SSE,150,6.0,-999.0,74,-99.99,,,-99.99,,2013-01-08 01:52:00,
2013-01-07 21:02:00,32.0,25.0,30.27,SSE,150,6.0,-999.0,74,-99.99,,,-99.99,,2013-01-08 02:02:00,
2013-01-07 21:12:00,34.0,25.0,30.27,SSE,160,5.0,-999.0,69,-99.99,,,-99.99,,2013-01-08 02:12:00,
2013-01-07 21:22:00,34.0,25.0,30.27,SSE,160,6.0,-999.0,69,-99.99,,,-99.99,,2013-01-08 02:22:00,
2013-01-07 21:33:00,34.0,25.0,30.26,South,170,7.0,-999.0,69,-99.99,,,-99.99,,2013-01-08 02:33:00,
2013-01-07 21:42:00,34.0,25.0,30.26,SSE,160,7.0,-999.0,69,-99.99,,,-99.99,,2013-01-08 02:42:00,
2013-01-07 21:53:00,34.0,25.0,30.25,South,170,5.0,-999.0,69,-99.99,,,-99.99,,2013-01-08 02:53:00,
2013-01-07 22:03:00,34.0,25.0,30.25,South,170,5.0,-999.0,69,-99.99,,,-99.99,,2013-01-08 03:03:00,
2013-01-07 22:12:00,32.0,23.0,30.24,SSE,150,6.0,-999.0,69,-99.99,,,-99.99,,2013-01-08 03:12:00,
2013-01-07 22:22:00,32.0,23.0,30.24,SSE,150,5.0,-999.0,69,-99.99,,,-99.99,,2013-01-08 03:22:00,
2013-01-07 22:32:00,30.0,23.0,30.24,SSE,150,3.0,-999.0,74,-99.99,,,-99.99,,2013-01-08 03:32:00,
2013-01-07 22:43:00,30.0,23.0,30.24,SSE,150,5.0,-999.0,74,-99.99,,,-99.99,,2013-01-08 03:43:00,
2013-01-07 22:52:00,32.0,23.0,30.25,South,170,6.0,-999.0,69,-99.99,,,-99.99,,2013-01-08 03:52:00,
2013-01-07 23:02:00,32.0,23.0,30.25,South,170,6.0,-999.0,69,-99.99,,,-99.99,,2013-01-08 04:02:00,
2013-01-07 23:12:00,30.0,23.0,30.25,South,180,6.0,-999.0,74,-99.99,,,-99.99,,2013-01-08 04:12:00,
2013-01-07 23:22:00,28.0,21.0,30.25,North,0,0.0,-999.0,74,-99.99,,,-99.99,,2013-01-08 04:22:00,
2013-01-07 23:32:00,28.0,23.0,30.25,South,180,3.0,-999.0,79,-99.99,,,-99.99,,2013-01-08 04:32:00,
2013-01-07 23:42:00,30.0,23.0,30.25,SSE,160,3.0,-999.0,74,-99.99,,,-99.99,,2013-01-08 04:42:00,
2013-01-07 23:52:00,30.0,23.0,30.25,South,180,6.0,-999.0,74,-99.99,,,-99.99,,2013-01-08 04:52:00,